STARLINK-11440, 62513

Orbit data source: Space-Track

STARLINK-11440, 62513 is a payload satellite owned by SpaceX/Seattle (US) in LEO that was launched on Wed, 08 Jan 2025 UTC via an FALCON 9 launch vehicle from the Air Force Eastern Test Range (AFETR). Payload-class satellites include a variety of spacecraft equipped with specific instruments for various scientific and technological missions. These include communications satellites like Starlink; space stations such as the ISS; scientific satellites like the Hubble; Earth observation satellites from companies like Planet Labs, Umbra, and HawkEye 360; GPS; miniature CubeSats for education and research; and military/defense satellites.

Loading next visibility...
Identifier
62513, 2025-004C
Orbit
LEO
Country
Flag of USUS
Related business
Manufacturer
SpaceX/Seattle
Mission
Operational Commercial Communications
Bus & Motor
STARLINK V2MD, Unknown motor
Mass
960 kg wet, ~910 kg dry
Launch date (UTC)
2025-01-08 (2 years ago)
Launch vehicle
FALCON 9
Launch site
Air Force Eastern Test Range (AFETR)
Object type
Payload
Rocket body
Debris
Shape & HBR
Box + 2 Pan, 18.1 m
Radar Cross Section
36.964 m², Large (>1 m²)

Expand to show TLE details & history
Last TLE update: 18 hours ago

TLE from 18 hours ago
0 STARLINK-11440
1 62513U 25004C   26254.39907085  .00164825  00000-0  12565-2 0  9995
2 62513  43.0003  31.5282 0005649 291.1183  68.9081 15.70942983 96419
Epoch: 2026-09-11T09:34Z
TLE epoch observation values (Epoch: 2026-09-11T09:34:39.721Z)
Latitude
0.00001°
Longitude
-102.56028°
Altitude
354.605 km
Speed
7.699 km/s
True Right ascension
02h 06m 06s
True Declination
0° 00' 00"
Sunlit
Object was in full shadow at epoch
Visualization orbit readout
Latitude
Unknown
Longitude
Unknown
Altitude
Unknown
Speed
Unknown
Apparent Right ascension
Unknown
Apparent Declination
Unknown
Sunlit
N/A
Visualization observer readout
Local Sidereal Time
20:06:40
Azimuth
Unknown
Elevation
Unknown
Doppler factor
Unknown
Orbital elements
Apogee altitude
361.988 km
Perigee altitude
354.377 km
Semi-major axis
6,736.319 km
Eccentricity
0.00056
Inclination
43.0003°
RAAN
31.5282°
Arg. of periapsis
291.1183°
True anomaly
68.96851°
Mean anomaly
68.9081°
Eccentric anomaly
68.9383°
Mean motion
3.92563 °/min
Orbital period
91.71 mins
BSTAR
0.0012565
Loading maneuver chart data...
Computing Atmospheric mass density...
Loading historical data...
Loading historical data...
Loading historical data...
Loading historical data...
Loading historical data...
Loading historical data...
Loading historical data...

Documentation

Showing up to 5 results
|